Regional Weather Roundup
Issued by NWS

Home | Current Version | Previous Version | Graphics & Text | Print | Product List | Glossary On
Versions: 1 2 3 4 5 6 7 8 9 10 11 12 13 14 15 16 17 18 19 20 21 22 23 24 25 26 27 28 29 30 31 32 33 34 35 36 37 38 39 40 41 42 43 44 45 46 47 48 49 50
000
ASUS43 KLSX 211357
RWRMO

WEATHER SUMMARY FOR MISSOURI
NATIONAL WEATHER SERVICE SPRINGFIELD MO
900 AM CDT SAT APR 21 2018

NOTE: "FAIR" INDICATES FEW OR NO CLOUDS BELOW 12,000 FEET WITH NO
       SIGNIFICANT WEATHER AND/OR OBSTRUCTIONS TO VISIBILITY.
       CURRENT SKY AND/OR WEATHER CONDITIONS ARE NOT AVAILABLE FOR
       CHILLICOTHE AND FARMINGTON.

MOZ001>031-035>038-043-044-053-054-211500-
...NORTHERN AND WESTERN MISSOURI...

CITY           SKY/WX    TMP DP  RH WIND       PRES   REMARKS
KANSAS CTY INT LGT RAIN  49  28  44 E13       30.24F
LEE`S SUMMIT   CLOUDY    49  28  44 E9        30.24F
ST JOSEPH      CLOUDY    51  28  41 E7        30.26F
CHILLICOTHE      N/A     51  27  39 E6        30.31F

$$
MOZ066>068-077>081-088>096-101>105-211500-
...SOUTHWEST MISSOURI...

CITY           SKY/WX    TMP DP  RH WIND       PRES   REMARKS
SPRINGFIELD    CLOUDY    53  31  42 SE12      30.19R
JOPLIN         CLOUDY    53  36  52 E7        30.17F
BRANSON        PTSUNNY   46  36  66 E9        30.20R

$$
MOZ032>034-039>042-045>050-055>058-069>072-211500-
...CENTRAL MISSOURI...

CITY           SKY/WX    TMP DP  RH WIND       PRES   REMARKS
COLUMBIA       NOT AVBL
JEFFERSON CITY CLOUDY    52  26  36 E13       30.29F
ROLLA          CLOUDY    49  28  44 E10       30.29F
SEDALIA        CLOUDY    51  31  46 E12       30.26F
WARRENSBURG    CLOUDY    48  30  49 N6        30.25S

$$
MOZ051-052-059>065-211500-
...EAST CENTRAL MISSOURI...

CITY           SKY/WX    TMP DP  RH WIND       PRES   REMARKS
ST LOUIS INTL  CLOUDY    53  30  41 E9        30.36R

$$
MOZ072>076-082>087-097>100-106>115-211500-
...SOUTH CENTRAL AND SOUTHEAST MISSOURI...

CITY           SKY/WX    TMP DP  RH WIND       PRES   REMARKS
CAPE GIRARDEAU FAIR      57  35  43 E8        30.30F
POPLAR BLUFF   FAIR      54  36  50 E6        30.29S
WEST PLAINS    CLOUDY    52  29  41 E9        30.26S

$$



USA.gov is the U.S. government's official web portal to all federal, state and local government web resources and services.